Date,TemperatureHighF,TemperatureAvgF,TemperatureLowF,DewpointHighF,DewpointAvgF,DewpointLowF,HumidityHigh,HumidityAvg,HumidityLow,PressureMaxIn,PressureMinIn,WindSpeedMaxMPH,WindSpeedAvgMPH,GustSpeedMaxMPH,PrecipitationSumIn
2013-4-1,73.4,61.3,50.0,56.6,44.7,32.9,98,61,24,29.83,29.68,10,3,0,0.01
2013-4-2,71.6,56.6,41.0,37.4,27.7,8.5,74,37,14,29.98,29.83,13,3,0,0.92
2013-4-3,60.8,53.6,46.4,30.6,23.0,8.5,44,31,15,30.09,29.93,15,4,0,0.00
2013-4-4,51.8,42.5,37.4,38.7,33.0,24.6,98,73,41,30.06,29.81,13,6,0,0.89
2013-4-5,69.8,50.5,33.8,45.9,39.0,33.3,98,70,31,29.89,29.74,10,3,0,0.00
2013-4-6,71.6,56.2,35.6,43.4,34.1,29.2,92,49,21,30.05,29.89,9,2,0,0.00
2013-4-7,73.4,57.7,41.0,48.7,43.4,34.7,88,61,38,30.08,29.94,9,2,0,0.00
2013-4-8,78.8,63.3,50.0,57.5,52.0,45.2,98,70,40,30.00,29.90,10,3,0,0.00
2013-4-9,80.6,67.6,53.6,59.7,54.3,49.7,90,65,41,30.04,29.94,12,3,0,0.00
2013-4-10,84.2,68.6,55.4,61.2,56.6,18.9,98,67,40,29.97,29.80,12,3,0,0.00
2013-4-11,78.8,67.8,55.4,67.4,59.6,53.1,98,77,52,29.82,29.55,10,4,0,0.06
2013-4-12,77.0,67.2,55.4,67.4,51.0,30.7,98,63,22,29.68,29.49,15,6,0,1.25
2013-4-13,82.4,64.2,41.0,45.0,35.4,22.6,87,40,11,29.84,29.68,9,3,0,0.00
2013-4-14,69.8,60.2,46.4,54.8,44.0,35.0,98,57,34,29.93,29.79,7,3,0,0.02
2013-4-15,71.6,61.3,53.6,61.2,56.8,53.0,98,86,66,30.03,29.80,7,4,0,1.09
2013-4-16,80.6,67.2,59.0,62.6,58.5,55.8,92,76,48,30.13,30.02,6,2,0,0.00
2013-4-17,82.4,66.6,60.8,64.9,61.7,58.5,98,86,52,30.09,29.96,12,2,0,2.34
2013-4-18,80.6,68.1,59.0,64.4,60.6,58.4,98,80,49,29.99,29.80,9,3,0,0.01
2013-4-19,68.0,61.2,46.4,67.4,59.7,45.9,98,95,82,29.80,29.62,12,5,0,1.61
2013-4-20,69.8,52.0,33.8,45.9,35.2,27.3,98,58,25,30.09,29.77,7,2,0,0.00
2013-4-21,68.0,54.8,42.8,41.7,34.8,30.2,66,48,31,30.24,30.09,14,6,0,0.00
2013-4-22,64.4,53.5,44.6,41.6,38.7,18.9,80,58,37,30.23,30.03,14,5,0,0.00
2013-4-23,73.4,57.3,41.0,49.3,41.2,31.2,91,57,38,30.11,29.93,8,3,0,0.00
2013-4-24,75.2,59.6,46.4,62.3,54.1,45.9,98,84,52,29.98,29.87,14,4,0,1.25
2013-4-25,77.0,62.1,48.2,58.4,44.7,28.9,98,59,26,30.11,29.90,10,3,0,0.01
2013-4-26,73.4,59.0,41.0,48.3,36.3,28.9,76,46,26,30.25,30.11,10,3,0,1.22
2013-4-27,60.8,55.7,53.6,58.4,52.7,45.0,98,90,68,30.20,30.07,7,2,0,0.35
2013-4-28,53.6,52.8,50.0,53.0,52.2,49.5,98,98,98,30.08,29.87,8,3,0,3.94
2013-4-29,73.4,61.6,53.6,62.3,56.5,53.0,98,85,54,29.90,29.76,9,2,0,0.13
2013-4-30,77.0,64.1,50.0,62.3,56.1,-38.2,98,79,52,30.00,29.82,9,3,0,0.00